TimePST,TemperatureF,Dew PointF,Humidity,Sea Level PressureIn,VisibilityMPH,Wind Direction,Wind SpeedMPH,Gust SpeedMPH,PrecipitationIn,Events,Conditions,WindDirDegrees,DateUTC
12:53 AM,48.0,39.9,74,29.69,10.0,SSE,15.0,19.6,N/A,,Partly Cloudy,150,2012-11-20 08:53:00
1:53 AM,48.0,39.0,71,29.71,10.0,South,11.5,-,N/A,,Scattered Clouds,170,2012-11-20 09:53:00
2:53 AM,48.0,39.9,74,29.72,10.0,South,9.2,-,N/A,,Partly Cloudy,190,2012-11-20 10:53:00
3:53 AM,46.9,39.9,77,29.73,10.0,South,8.1,-,N/A,,Overcast,180,2012-11-20 11:53:00
4:01 AM,46.4,39.2,76,29.71,10.0,South,4.6,-,N/A,,Overcast,170,2012-11-20 12:01:00
4:28 AM,46.4,39.2,76,29.72,10.0,SSE,4.6,-,N/A,,Overcast,160,2012-11-20 12:28:00
4:53 AM,46.0,39.0,76,29.74,10.0,SSW,4.6,-,N/A,,Overcast,200,2012-11-20 12:53:00
5:53 AM,44.1,39.0,82,29.73,10.0,SW,6.9,-,N/A,,Overcast,220,2012-11-20 13:53:00
6:53 AM,46.0,39.0,76,29.73,10.0,South,6.9,-,N/A,,Overcast,190,2012-11-20 14:53:00
7:11 AM,46.4,39.2,76,29.71,10.0,South,4.6,-,N/A,,Overcast,190,2012-11-20 15:11:00
7:53 AM,45.0,39.9,82,29.71,10.0,SW,3.5,-,N/A,,Overcast,230,2012-11-20 15:53:00
8:10 AM,44.6,39.2,81,29.69,10.0,West,3.5,-,N/A,,Overcast,260,2012-11-20 16:10:00
8:53 AM,46.0,39.9,79,29.70,10.0,WSW,4.6,-,N/A,,Overcast,250,2012-11-20 16:53:00
9:07 AM,46.4,39.2,76,29.68,10.0,WSW,3.5,-,N/A,,Overcast,240,2012-11-20 17:07:00
9:49 AM,46.4,41.0,81,29.67,10.0,Calm,Calm,-,N/A,,Overcast,0,2012-11-20 17:49:00
9:53 AM,46.0,41.0,83,29.68,10.0,Calm,Calm,-,N/A,,Overcast,0,2012-11-20 17:53:00
10:01 AM,46.4,41.0,81,29.67,10.0,Calm,Calm,-,0.00,Rain,Light Rain,0,2012-11-20 18:01:00
10:53 AM,45.0,43.0,93,29.65,10.0,NNE,3.5,-,0.00,,Overcast,20,2012-11-20 18:53:00
11:48 AM,44.6,42.8,93,29.62,1.8,Calm,Calm,-,0.05,Rain,Rain,0,2012-11-20 19:48:00
11:53 AM,45.0,43.0,93,29.63,1.5,East,3.5,-,0.06,Rain,Rain,90,2012-11-20 19:53:00
12:15 PM,44.6,42.8,93,29.61,1.5,South,5.8,-,0.04,Rain,Light Rain,180,2012-11-20 20:15:00
12:24 PM,44.6,42.8,93,29.61,2.5,SSE,4.6,-,0.05,Rain,Light Rain,160,2012-11-20 20:24:00
12:29 PM,44.6,42.8,93,29.60,3.0,SSW,3.5,-,0.05,Rain,Light Rain,200,2012-11-20 20:29:00
12:43 PM,44.6,42.8,93,29.59,9.0,SSW,3.5,-,0.05,Rain,Light Rain,210,2012-11-20 20:43:00
12:53 PM,45.0,43.0,93,29.61,9.0,SSW,4.6,-,0.05,,Overcast,210,2012-11-20 20:53:00
1:16 PM,46.4,44.6,93,29.58,10.0,South,5.8,-,N/A,,Overcast,190,2012-11-20 21:16:00
1:53 PM,46.9,44.1,90,29.60,10.0,South,6.9,-,0.01,Rain,Light Rain,190,2012-11-20 21:53:00
2:02 PM,46.4,44.6,93,29.59,10.0,South,8.1,-,0.00,Rain,Light Rain,190,2012-11-20 22:02:00
2:53 PM,48.0,45.0,89,29.59,10.0,South,9.2,-,0.00,Rain,Light Rain,170,2012-11-20 22:53:00
3:53 PM,48.9,44.1,83,29.60,10.0,South,12.7,-,0.00,,Overcast,180,2012-11-20 23:53:00
4:01 PM,48.2,44.6,87,29.59,10.0,South,12.7,-,N/A,,Overcast,190,2012-11-21 00:01:00
4:53 PM,48.9,44.1,83,29.62,10.0,South,11.5,-,N/A,,Overcast,180,2012-11-21 00:53:00
5:24 PM,48.2,42.8,82,29.61,10.0,South,8.1,-,0.01,Thunderstorm,Scattered Clouds,170,2012-11-21 01:24:00
5:39 PM,46.4,42.8,87,29.61,10.0,SSE,6.9,-,0.01,,Partly Cloudy,160,2012-11-21 01:39:00
5:53 PM,46.9,43.0,86,29.64,10.0,SSE,8.1,-,0.01,,Partly Cloudy,160,2012-11-21 01:53:00
6:53 PM,46.0,37.9,73,29.66,10.0,SSE,5.8,-,N/A,,Clear,160,2012-11-21 02:53:00
7:53 PM,43.0,37.0,80,29.66,10.0,SSE,6.9,-,N/A,,Clear,160,2012-11-21 03:53:00
8:53 PM,43.0,36.0,76,29.67,10.0,South,8.1,-,N/A,,Clear,190,2012-11-21 04:53:00
9:53 PM,42.1,36.0,79,29.68,10.0,South,5.8,-,N/A,,Clear,190,2012-11-21 05:53:00
10:53 PM,41.0,35.1,79,29.68,10.0,South,5.8,-,N/A,,Clear,180,2012-11-21 06:53:00
11:53 PM,37.9,34.0,86,29.70,-9999.0,SW,3.5,-,N/A,,Unknown,230,2012-11-21 07:53:00